| time (UTC) | temp C | wind direction | speed KPH | gust KPH | rain 1hr cm | rain 24hr cm | rain mn cm | humidity % | barometer mb |
| 20260509074620 | 14 | 271 | 3.2 | 6.4 | 0.00 | 0.00 | 0.00 | 31 | 1016.1 |
| 20260509073628 | 14 | 246 | 4.8 | 8.0 | 0.00 | 0.00 | 0.00 | 33 | 1015.8 |
| 20260509072616 | 13 | 69 | 6.4 | 11.3 | 0.00 | 0.00 | 0.00 | 34 | 1015.8 |
| 20260509071621 | 13 | 67 | 6.4 | 16.1 | 0.00 | 0.00 | 0.00 | 35 | 1015.6 |
| 20260509070614 | 13 | 71 | 4.8 | 9.7 | 0.00 | 0.00 | 0.00 | 35 | 1015.2 |
| 20260509065617 | 15 | 325 | 1.6 | 12.9 | 0.00 | 0.00 | 0.00 | 29 | 1015.2 |
| 20260509064626 | 15 | 280 | 4.8 | 6.4 | 0.00 | 0.00 | 0.00 | 29 | 1015.1 |
| 20260509063615 | 14 | 280 | 4.8 | 6.4 | 0.00 | 0.00 | 0.00 | 31 | 1015.3 |
| 20260509062626 | 14 | 280 | 6.4 | 11.3 | 0.00 | 0.00 | 0.00 | 34 | 1015.4 |
| 20260509061615 | 14 | 263 | 3.2 | 9.7 | 0.00 | 0.00 | 0.00 | 34 | 1015.3 |
| 20260509060626 | 13 | 24 | 3.2 | 4.8 | 0.00 | 0.00 | 0.00 | 38 | 1015.3 |
| 20260509055627 | 13 | 24 | 1.6 | 4.8 | 0.00 | 0.00 | 0.00 | 40 | 1015.3 |
| 20260509054637 | 13 | 24 | 1.6 | 4.8 | 0.00 | 0.00 | 0.00 | 38 | 1015.1 |
| 20260509053630 | 12 | 24 | 3.2 | 4.8 | 0.00 | 0.00 | 0.00 | 39 | 1015.1 |
| 20260509052617 | 12 | 25 | 1.6 | 6.4 | 0.00 | 0.00 | 0.00 | 43 | 1015.1 |
| 20260509051628 | 12 | 351 | 4.8 | 8.0 | 0.00 | 0.00 | 0.00 | 43 | 1014.9 |
| 20260509050622 | 13 | 308 | 3.2 | 6.4 | 0.00 | 0.00 | 0.00 | 40 | 1014.9 |
| 20260509045642 | 16 | 342 | 4.8 | 8.0 | 0.00 | 0.00 | 0.00 | 33 | 1014.7 |
| 20260509044629 | 17 | 265 | 4.8 | 14.5 | 0.00 | 0.00 | 0.00 | 28 | 1014.7 |
| 20260509043638 | 17 | 277 | 11.3 | 16.1 | 0.00 | 0.00 | 0.00 | 28 | 1014.6 |
| 20260509042626 | 17 | 243 | 11.3 | 16.1 | 0.00 | 0.00 | 0.00 | 28 | 1014.6 |
| 20260509041617 | 17 | 281 | 11.3 | 17.7 | 0.00 | 0.00 | 0.00 | 29 | 1014.4 |
| 20260509040625 | 17 | 309 | 12.9 | 17.7 | 0.00 | 0.00 | 0.00 | 30 | 1014.6 |
| 20260509035617 | 17 | 265 | 11.3 | 17.7 | 0.00 | 0.00 | 0.00 | 28 | 1014.6 |
| 20260509034625 | 17 | 287 | 6.4 | 12.9 | 0.00 | 0.00 | 0.00 | 29 | 1014.1 |
| 20260509033635 | 17 | 260 | 8.0 | 12.9 | 0.00 | 0.00 | 0.00 | 28 | 1014.1 |
| 20260509032623 | 17 | 298 | 9.7 | 14.5 | 0.00 | 0.00 | 0.00 | 28 | 1014.2 |
| 20260509031629 | 17 | 296 | 6.4 | 14.5 | 0.00 | 0.00 | 0.00 | 27 | 1014.1 |
| 20260509030616 | 17 | 277 | 9.7 | 14.5 | 0.00 | 0.00 | 0.00 | 27 | 1014.0 |
| 20260509025618 | 16 | 254 | 8.0 | 14.5 | 0.00 | 0.00 | 0.00 | 30 | 1014.0 |
| 20260509024646 | 17 | 285 | 8.0 | 12.9 | 0.00 | 0.00 | 0.00 | 29 | 1013.7 |
| 20260509023613 | 19 | 291 | 6.4 | 11.3 | 0.00 | 0.00 | 0.00 | 29 | 1013.7 |
| 20260509022617 | 21 | 263 | 8.0 | 12.9 | 0.00 | 0.00 | 0.00 | 26 | 1013.6 |
| 20260509021621 | 21 | 271 | 9.7 | 12.9 | 0.00 | 0.00 | 0.00 | 22 | 1013.4 |
| 20260509020625 | 22 | 252 | 6.4 | 12.9 | 0.00 | 0.00 | 0.00 | 21 | 1013.2 |
| 20260509015639 | 21 | 269 | 6.4 | 14.5 | 0.00 | 0.00 | 0.00 | 28 | 1013.2 |
| 20260509014623 | 21 | 286 | 6.4 | 11.3 | 0.00 | 0.00 | 0.00 | 31 | 1013.2 |
| 20260509013630 | 21 | 240 | 9.7 | 12.9 | 0.00 | 0.00 | 0.00 | 31 | 1013.1 |
| 20260509012622 | 22 | 217 | 11.3 | 14.5 | 0.00 | 0.00 | 0.00 | 28 | 1012.9 |
| 20260509011630 | 22 | 217 | 9.7 | 12.9 | 0.00 | 0.00 | 0.00 | 29 | 1013.0 |
| 20260509010638 | 22 | 186 | 8.0 | 14.5 | 0.00 | 0.00 | 0.00 | 30 | 1013.0 |
| 20260509005615 | 23 | 193 | 14.5 | 19.3 | 0.00 | 0.00 | 0.00 | 28 | 1012.9 |
| 20260509004627 | 23 | 187 | 17.7 | 30.6 | 0.00 | 0.00 | 0.00 | 28 | 1012.6 |
| 20260509003613 | 23 | 206 | 12.9 | 17.7 | 0.00 | 0.00 | 0.00 | 27 | 1012.8 |
| 20260509002641 | 23 | 188 | 12.9 | 19.3 | 0.00 | 0.00 | 0.00 | 26 | 1012.7 |
| 20260509001647 | 24 | 184 | 11.3 | 20.9 | 0.00 | 0.00 | 0.00 | 27 | 1012.9 |
| 20260509000639 | 24 | 180 | 9.7 | 27.4 | 0.00 | 0.00 | 0.00 | 24 | 1012.9 |
| 20260508235622 | 24 | 155 | 12.9 | 22.5 | 0.00 | 0.00 | 0.00 | 25 | 1012.9 |
| 20260508234630 | 24 | 190 | 14.5 | 27.4 | 0.00 | 0.00 | 0.00 | 24 | 1013.0 |
| 20260508233620 | 24 | 189 | 12.9 | 24.1 | 0.00 | 0.00 | 0.00 | 24 | 1012.9 |
| 20260508232628 | 24 | 155 | 11.3 | 19.3 | 0.00 | 0.00 | 0.00 | 26 | 1013.0 |
| 20260508231621 | 24 | 142 | 12.9 | 25.7 | 0.00 | 0.00 | 0.00 | 25 | 1013.1 |
| 20260508230630 | 23 | 141 | 17.7 | 30.6 | 0.00 | 0.00 | 0.00 | 26 | 1013.1 |
| 20260508225628 | 23 | 184 | 16.1 | 25.7 | 0.00 | 0.00 | 0.00 | 26 | 1013.2 |
| 20260508224618 | 23 | 138 | 22.5 | 29.0 | 0.00 | 0.00 | 0.00 | 26 | 1013.2 |
| 20260508223612 | 23 | 166 | 17.7 | 25.7 | 0.00 | 0.00 | 0.00 | 27 | 1013.3 |
| 20260508222622 | 23 | 167 | 19.3 | 29.0 | 0.00 | 0.00 | 0.00 | 26 | 1013.4 |
| 20260508221651 | 24 | 162 | 17.7 | 25.7 | 0.00 | 0.00 | 0.00 | 25 | 1013.5 |
| 20260508220618 | 24 | 180 | 20.9 | 30.6 | 0.00 | 0.00 | 0.00 | 25 | 1013.7 |
| 20260508215619 | 24 | 188 | 17.7 | 27.4 | 0.00 | 0.00 | 0.00 | 25 | 1013.8 |
| 20260508214627 | 24 | 215 | 16.1 | 22.5 | 0.00 | 0.00 | 0.00 | 24 | 1014.0 |
| 20260508213635 | 24 | 292 | 3.2 | 30.6 | 0.00 | 0.00 | 0.00 | 25 | 1014.1 |
| 20260508212622 | 24 | 195 | 11.3 | 20.9 | 0.00 | 0.00 | 0.00 | 22 | 1014.2 |
| 20260508211614 | 24 | 157 | 9.7 | 27.4 | 0.00 | 0.00 | 0.00 | 26 | 1014.4 |
| 20260508210624 | 24 | 12 | 8.0 | 12.9 | 0.00 | 0.00 | 0.00 | 20 | 1014.5 |
| 20260508205626 | 23 | 248 | 9.7 | 24.1 | 0.00 | 0.00 | 0.00 | 20 | 1014.5 |
| 20260508204616 | 23 | 261 | 12.9 | 22.5 | 0.00 | 0.00 | 0.00 | 21 | 1014.7 |
| 20260508203629 | 23 | 233 | 17.7 | 25.7 | 0.00 | 0.00 | 0.00 | 20 | 1014.6 |
| 20260508202639 | 23 | 293 | 8.0 | 30.6 | 0.00 | 0.00 | 0.00 | 20 | 1014.9 |
| 20260508201629 | 23 | 229 | 16.1 | 30.6 | 0.00 | 0.00 | 0.00 | 20 | 1015.0 |
| 20260508200620 | 23 | 229 | 9.7 | 27.4 | 0.00 | 0.00 | 0.00 | 22 | 1015.1 |
| 20260508195645 | 22 | 252 | 11.3 | 20.9 | 0.00 | 0.00 | 0.00 | 22 | 1015.1 |
| 20260508194612 | 22 | 233 | 9.7 | 19.3 | 0.00 | 0.00 | 0.00 | 22 | 1015.1 |
| 20260508193620 | 22 | 273 | 17.7 | 30.6 | 0.00 | 0.00 | 0.00 | 24 | 1015.2 |
| 20260508192648 | 22 | 236 | 19.3 | 25.7 | 0.00 | 0.00 | 0.00 | 24 | 1015.2 |
| 20260508191618 | 22 | 108 | 9.7 | 20.9 | 0.00 | 0.00 | 0.00 | 24 | 1015.5 |
| 20260508190626 | 22 | 253 | 16.1 | 27.4 | 0.00 | 0.00 | 0.00 | 24 | 1015.6 |
| 20260508185626 | 22 | 262 | 12.9 | 19.3 | 0.00 | 0.00 | 0.00 | 23 | 1015.6 |
| 20260508184614 | 22 | 282 | 12.9 | 19.3 | 0.00 | 0.00 | 0.00 | 23 | 1015.8 |
| 20260508183625 | 22 | 326 | 14.5 | 24.1 | 0.00 | 0.00 | 0.00 | 24 | 1015.9 |
| 20260508182613 | 21 | 309 | 11.3 | 20.9 | 0.00 | 0.00 | 0.00 | 25 | 1015.9 |
| 20260508181622 | 21 | 299 | 12.9 | 27.4 | 0.00 | 0.00 | 0.00 | 25 | 1016.1 |
| 20260508180613 | 21 | 308 | 17.7 | 29.0 | 0.00 | 0.00 | 0.00 | 24 | 1016.2 |
| 20260508175650 | 21 | 269 | 9.7 | 24.1 | 0.00 | 0.00 | 0.00 | 25 | 1016.4 |
| 20260508174623 | 21 | 315 | 12.9 | 25.7 | 0.00 | 0.00 | 0.00 | 24 | 1016.5 |
| 20260508173631 | 21 | 298 | 14.5 | 17.7 | 0.00 | 0.00 | 0.00 | 24 | 1016.4 |
| 20260508172615 | 20 | 320 | 11.3 | 16.1 | 0.00 | 0.00 | 0.00 | 24 | 1016.5 |
| 20260508171620 | 20 | 123 | 4.8 | 11.3 | 0.00 | 0.00 | 0.00 | 29 | 1016.6 |
| 20260508170631 | 20 | 98 | 9.7 | 16.1 | 0.00 | 0.00 | 0.00 | 36 | 1016.5 |
| 20260508165649 | 20 | 98 | 4.8 | 14.5 | 0.00 | 0.00 | 0.00 | 31 | 1016.6 |
| 20260508164635 | 20 | 142 | 4.8 | 12.9 | 0.00 | 0.00 | 0.00 | 36 | 1016.5 |
| 20260508163639 | 20 | 134 | 6.4 | 11.3 | 0.00 | 0.00 | 0.00 | 34 | 1016.6 |
| 20260508162623 | 20 | 132 | 6.4 | 12.9 | 0.00 | 0.00 | 0.00 | 31 | 1016.6 |
| 20260508161616 | 19 | 166 | 8.0 | 12.9 | 0.00 | 0.00 | 0.00 | 35 | 1016.6 |
| 20260508160647 | 18 | 105 | 6.4 | 12.9 | 0.00 | 0.00 | 0.00 | 30 | 1016.7 |
| 20260508155625 | 18 | 91 | 6.4 | 9.7 | 0.00 | 0.00 | 0.00 | 35 | 1016.6 |
| 20260508154631 | 17 | 143 | 4.8 | 8.0 | 0.00 | 0.00 | 0.00 | 43 | 1016.6 |
| 20260508153624 | 17 | 144 | 3.2 | 6.4 | 0.00 | 0.00 | 0.00 | 44 | 1016.7 |
| 20260508152614 | 16 | 144 | 3.2 | 6.4 | 0.00 | 0.00 | 0.00 | 44 | 1016.8 |
| 20260508151625 | 16 | 144 | 3.2 | 6.4 | 0.00 | 0.00 | 0.00 | 48 | 1016.7 |
| 20260508150631 | 15 | 72 | 1.6 | 6.4 | 0.00 | 0.00 | 0.00 | 49 | 1016.7 |
| 20260508145632 | 14 | 32 | 4.8 | 6.4 | 0.00 | 0.00 | 0.00 | 51 | 1016.5 |
| 20260508144618 | 13 | 42 | 4.8 | 9.7 | 0.00 | 0.00 | 0.00 | 55 | 1016.6 |
| 20260508143642 | 12 | 32 | 6.4 | 11.3 | 0.00 | 0.00 | 0.00 | 60 | 1016.5 |
| 20260508142612 | 12 | 38 | 6.4 | 9.7 | 0.00 | 0.00 | 0.00 | 64 | 1016.5 |
| 20260508141620 | 11 | 31 | 6.4 | 9.7 | 0.00 | 0.00 | 0.00 | 67 | 1016.4 |
| 20260508140631 | 10 | 30 | 6.4 | 8.0 | 0.00 | 0.00 | 0.00 | 69 | 1016.3 |
| 20260508135646 | 9 | 30 | 6.4 | 9.7 | 0.00 | 0.00 | 0.00 | 70 | 1016.3 |
| 20260508134615 | 8 | 37 | 4.8 | 8.0 | 0.00 | 0.00 | 0.00 | 71 | 1016.3 |
| 20260508133646 | 7 | 38 | 4.8 | 6.4 | 0.00 | 0.00 | 0.00 | 74 | 1016.1 |
| 20260508132619 | 6 | 38 | 3.2 | 6.4 | 0.00 | 0.00 | 0.00 | 72 | 1015.9 |
| 20260508131648 | 6 | 38 | 3.2 | 6.4 | 0.00 | 0.00 | 0.00 | 73 | 1015.9 |
| 20260508130615 | 5 | 360 | 1.6 | 3.2 | 0.00 | 0.00 | 0.00 | 73 | 1015.8 |
| 20260508125615 | 5 | 360 | 0.0 | 3.2 | 0.00 | 0.00 | 0.00 | 75 | 1015.6 |
| 20260508124645 | 4 | 360 | 1.6 | 6.4 | 0.00 | 0.00 | 0.00 | 75 | 1015.4 |
| 20260508123615 | 5 | 39 | 4.8 | 6.4 | 0.00 | 0.00 | 0.00 | 72 | 1015.4 |
| 20260508122641 | 5 | 17 | 3.2 | 8.0 | 0.00 | 0.00 | 0.00 | 69 | 1015.2 |
| 20260508121626 | 6 | 17 | 3.2 | 8.0 | 0.00 | 0.00 | 0.00 | 64 | 1015.2 |
| 20260508120619 | 7 | 34 | 4.8 | 12.9 | 0.00 | 0.00 | 0.00 | 60 | 1015.1 |
| 20260508115618 | 8 | 28 | 8.0 | 12.9 | 0.00 | 0.00 | 0.00 | 55 | 1015.0 |
| 20260508114631 | 10 | 255 | 6.4 | 12.9 | 0.00 | 0.00 | 0.00 | 49 | 1014.8 |
| 20260508113619 | 8 | 35 | 4.8 | 8.0 | 0.00 | 0.00 | 0.00 | 58 | 1014.8 |
| 20260508112629 | 8 | 311 | 1.6 | 4.8 | 0.00 | 0.00 | 0.00 | 55 | 1014.8 |
| 20260508111641 | 9 | 311 | 3.2 | 6.4 | 0.00 | 0.00 | 0.00 | 54 | 1014.6 |
| 20260508110632 | 10 | 360 | 4.8 | 8.0 | 0.00 | 0.00 | 0.00 | 52 | 1014.6 |
| 20260508105631 | 10 | 167 | 1.6 | 4.8 | 0.00 | 0.00 | 0.00 | 50 | 1014.6 |
| 20260508104619 | 10 | 167 | 4.8 | 6.4 | 0.00 | 0.00 | 0.00 | 50 | 1014.5 |
| 20260508103627 | 9 | 289 | 0.0 | 8.0 | 0.00 | 0.00 | 0.00 | 54 | 1014.4 |
| 20260508102621 | 8 | 290 | 6.4 | 8.0 | 0.00 | 0.00 | 0.00 | 55 | 1014.4 |
| 20260508101630 | 8 | 312 | 4.8 | 6.4 | 0.00 | 0.00 | 0.00 | 58 | 1014.4 |
| 20260508100617 | 8 | 19 | 3.2 | 4.8 | 0.00 | 0.00 | 0.00 | 59 | 1014.5 |
| 20260508095620 | 8 | 19 | 3.2 | 6.4 | 0.00 | 0.00 | 0.00 | 59 | 1014.3 |
| 20260508094629 | 10 | 19 | 4.8 | 8.0 | 0.00 | 0.00 | 0.00 | 54 | 1014.2 |
| 20260508093631 | 13 | 36 | 4.8 | 11.3 | 0.00 | 0.00 | 0.00 | 43 | 1014.1 |
| 20260508092617 | 13 | 240 | 9.7 | 14.5 | 0.00 | 0.00 | 0.00 | 38 | 1014.1 |
| 20260508091624 | 13 | 225 | 11.3 | 14.5 | 0.00 | 0.00 | 0.00 | 37 | 1014.1 |
| 20260508090637 | 10 | 225 | 3.2 | 6.4 | 0.00 | 0.00 | 0.00 | 51 | 1014.1 |
| 20260508085614 | 12 | 88 | 1.6 | 6.4 | 0.00 | 0.00 | 0.00 | 48 | 1014.1 |
| 20260508084620 | 15 | 261 | 1.6 | 11.3 | 0.00 | 0.00 | 0.00 | 37 | 1014.1 |
| 20260508083627 | 15 | 271 | 6.4 | 12.9 | 0.00 | 0.00 | 0.00 | 36 | 1014.1 |
| 20260508082619 | 13 | 245 | 6.4 | 12.9 | 0.00 | 0.00 | 0.00 | 41 | 1014.1 |
| 20260508081628 | 11 | 242 | 8.0 | 11.3 | 0.00 | 0.00 | 0.00 | 47 | 1014.1 |
| 20260508080616 | 10 | 208 | 1.6 | 6.4 | 0.00 | 0.00 | 0.00 | 54 | 1014.2 |
| 20260508075631 | 12 | 130 | 3.2 | 8.0 | 0.00 | 0.00 | 0.00 | 47 | 1014.3 |